Location: Canyon City
(32.5951°N, 116.5278°W)
Time: 22:19:58
(UTC+00:00)

OAO 3 Rocket - Pass Details

Date: 06 December 2024
Orbit: 618 x 666 km, 35.0° (Epoch: 19 January)

Event Time Altitude Azimuth Distance (km) Brightness Sun altitude
Exits shadow 13:05:23 17° 227° (SW) 1,588 4.8 -18.4°
Maximum altitude 13:08:45 50° 157° (SSE) 794 3.8 -17.7°
Drops below altitude 10° 13:13:13 10° 82° (E) 1,988 6.7 -16.8°
Sets 13:15:36 0° 77° (ENE) 2,890 7.6 -16.3°
